Weather History for KASJ - June, 2013

Change the Weather History Date:

Sunday, June 30, 2013

  Actual Average (KEMV) Record (KEMV)
Temperature  
Mean Temperature - -  
Max Temperature - 89 °F 98 °F (1993)
Min Temperature - 63 °F 57 °F (1989)
Moisture  
Dew Point -    
Average Humidity    
Maximum Humidity    
Minimum Humidity    
Precipitation  
Precipitation 0.07 in - - ()
Sea Level Pressure  
Sea Level Pressure 29.82 in    
Wind  
Wind Speed 6 mph (South)    
Max Wind Speed 14 mph    
Max Gust Speed 18 mph    
Visibility 10 miles    
Events Rain    
Averages and records for this station are not official NWS values.
T = Trace of Precipitation, MM = Missing Value Source: NWS Daily Summary

Daily Weather History Graph

Daily Weather History Graph

Search for Another Location

Airport or City:

Trip Planner

Search our weather history database for the weather conditions in past years. The results will help you decide how hot, cold, wet, or windy it might be!

Date:

Astronomy

Jun. 30, 2013 Rise Set
Actual Time 5:54 AM EDT 8:30 PM EDT
Civil Twilight 5:24 AM EDT 9:00 PM EDT
Nautical Twilight 4:46 AM EDT 9:38 PM EDT
Astronomical Twilight 4:04 AM EDT 10:20 PM EDT
Moon 12:43 AM EDT (6/30) 1:50 PM EDT (6/30)
Length of Visible Light 15h 36m
Length of Day
14h 35m
Last Quarter, 45% of the Moon is Illuminated
Jun 30
Last Quarter
Jul 8
New
Jul 15
First Quarter
Jul 22
Full
Jul 29
Last Quarter

Hourly Weather History & Observations

Time (EDT) Temp. Dew Point Humidity Pressure Visibility Wind Dir Wind Speed Gust Speed Precip Events Conditions
12:15 AM - - N/A% 29.77 in 10.0 mi SSE 4.6 mph - N/A   Mostly Cloudy
12:35 AM - - N/A% 29.77 in 10.0 mi South 5.8 mph - N/A   Scattered Clouds
12:55 AM - - N/A% 29.78 in 10.0 mi South 5.8 mph - N/A   Clear
1:15 AM - - N/A% 29.77 in 10.0 mi South 6.9 mph - N/A   Clear
1:35 AM - - N/A% 29.77 in 10.0 mi South 4.6 mph - N/A   Scattered Clouds
1:55 AM - - N/A% 29.77 in 10.0 mi South 3.5 mph - N/A   Scattered Clouds
2:15 AM - - N/A% 29.78 in 10.0 mi South 4.6 mph - N/A   Mostly Cloudy
2:35 AM - - N/A% 29.78 in 10.0 mi South 5.8 mph - N/A   Scattered Clouds
2:55 AM - - N/A% 29.78 in 10.0 mi South 4.6 mph - N/A   Scattered Clouds
3:15 AM - - N/A% 29.77 in 10.0 mi South 3.5 mph - N/A   Scattered Clouds
3:35 AM - - N/A% 29.77 in 10.0 mi South 3.5 mph - N/A   Scattered Clouds
3:55 AM - - N/A% 29.76 in 10.0 mi South 4.6 mph - N/A   Overcast
4:15 AM - - N/A% 29.76 in 10.0 mi South 4.6 mph - N/A   Overcast
4:35 AM - - N/A% 29.76 in 10.0 mi South 4.6 mph - N/A   Overcast
4:55 AM - - N/A% 29.77 in 10.0 mi South 6.9 mph - N/A   Mostly Cloudy
5:15 AM - - N/A% 29.77 in 10.0 mi South 5.8 mph - N/A   Scattered Clouds
5:35 AM - - N/A% 29.78 in 10.0 mi SSE 5.8 mph - N/A Rain Light Rain
5:55 AM - - N/A% 29.78 in 10.0 mi South 3.5 mph - N/A   Scattered Clouds
6:15 AM - - N/A% 29.78 in 10.0 mi South 4.6 mph - N/A   Scattered Clouds
6:35 AM - - N/A% 29.79 in 10.0 mi South 4.6 mph - N/A   Scattered Clouds
6:55 AM - - N/A% 29.80 in 10.0 mi South 3.5 mph - N/A   Scattered Clouds
7:15 AM - - N/A% 29.81 in 10.0 mi South 4.6 mph - N/A   Scattered Clouds
7:35 AM - - N/A% 29.81 in 10.0 mi SSE 5.8 mph - N/A   Scattered Clouds
7:55 AM - - N/A% 29.81 in 10.0 mi South 5.8 mph - N/A   Scattered Clouds
8:15 AM - - N/A% 29.81 in 10.0 mi South 5.8 mph - N/A   Clear
8:35 AM - - N/A% 29.83 in 10.0 mi South 5.8 mph - N/A   Scattered Clouds
8:55 AM - - N/A% 29.83 in 10.0 mi South 4.6 mph - N/A   Mostly Cloudy
9:15 AM - - N/A% 29.83 in 10.0 mi South 5.8 mph - N/A   Overcast
9:35 AM - - N/A% 29.83 in 10.0 mi SSE 8.1 mph - N/A   Overcast
9:55 AM - - N/A% 29.83 in 10.0 mi South 5.8 mph - N/A Rain Light Rain
10:15 AM - - N/A% 29.83 in 10.0 mi South 4.6 mph - N/A   Mostly Cloudy
10:35 AM - - N/A% 29.83 in 10.0 mi South 8.1 mph - N/A   Clear
10:55 AM - - N/A% 29.83 in 10.0 mi South 9.2 mph - N/A   Scattered Clouds
11:15 AM - - N/A% 29.83 in 10.0 mi SSE 10.4 mph - N/A   Scattered Clouds
11:35 AM - - N/A% 29.84 in 10.0 mi SSE 9.2 mph - N/A   Scattered Clouds
11:55 AM - - N/A% 29.84 in 10.0 mi SSE 10.4 mph - N/A   Scattered Clouds
12:15 PM - - N/A% 29.85 in 10.0 mi South 6.9 mph - N/A   Scattered Clouds
12:35 PM - - N/A% 29.84 in 10.0 mi South 8.1 mph - N/A Rain Light Rain
12:55 PM - - N/A% 29.84 in 10.0 mi South 8.1 mph - N/A   Scattered Clouds
1:15 PM - - N/A% 29.83 in 10.0 mi South 6.9 mph - N/A   Scattered Clouds
1:35 PM - - N/A% 29.83 in 10.0 mi SSE 11.5 mph - N/A   Scattered Clouds
1:55 PM - - N/A% 29.83 in 10.0 mi SSE 9.2 mph - N/A   Scattered Clouds
2:15 PM - - N/A% 29.83 in 10.0 mi South 5.8 mph 10.4 mph N/A   Scattered Clouds
2:35 PM - - N/A% 29.83 in 10.0 mi SSE 9.2 mph - N/A   Scattered Clouds
2:55 PM - - N/A% 29.82 in 10.0 mi South 9.2 mph - N/A   Scattered Clouds
3:15 PM - - N/A% 29.82 in 10.0 mi SSE 9.2 mph - N/A   Clear
3:35 PM - - N/A% 29.83 in 10.0 mi SSE 10.4 mph - N/A   Scattered Clouds
3:55 PM - - N/A% 29.82 in 10.0 mi South 13.8 mph 18.4 mph N/A   Scattered Clouds
4:15 PM - - N/A% 29.82 in 10.0 mi South 9.2 mph 18.4 mph N/A   Clear
4:35 PM - - N/A% 29.83 in 10.0 mi South 9.2 mph - N/A   Clear
4:55 PM - - N/A% 29.83 in 10.0 mi South 6.9 mph 16.1 mph N/A   Clear
5:15 PM - - N/A% 29.82 in 10.0 mi South 9.2 mph 16.1 mph N/A   Clear
5:35 PM - - N/A% 29.82 in 10.0 mi South 10.4 mph - N/A   Clear
5:55 PM - - N/A% 29.82 in 10.0 mi SSE 11.5 mph 16.1 mph N/A   Clear
6:15 PM - - N/A% 29.82 in 10.0 mi South 5.8 mph - N/A   Scattered Clouds
6:35 PM - - N/A% 29.83 in 10.0 mi South 6.9 mph - N/A   Mostly Cloudy
6:55 PM - - N/A% 29.84 in 10.0 mi South 9.2 mph - N/A   Scattered Clouds
7:15 PM - - N/A% 29.85 in 10.0 mi South 6.9 mph - N/A   Scattered Clouds
7:35 PM - - N/A% 29.85 in 10.0 mi South 5.8 mph - N/A   Scattered Clouds
7:55 PM - - N/A% 29.85 in 10.0 mi SSE 3.5 mph - N/A   Clear
8:15 PM - - N/A% 29.86 in 10.0 mi South 4.6 mph - N/A   Clear
8:35 PM - - N/A% 29.86 in 10.0 mi SSE 5.8 mph - N/A   Clear
8:55 PM - - N/A% 29.87 in 10.0 mi SSE 3.5 mph - N/A   Clear
9:15 PM - - N/A% 29.88 in 10.0 mi South 4.6 mph - N/A   Clear
9:35 PM - - N/A% 29.88 in 10.0 mi South 5.8 mph - N/A   Clear
9:55 PM - - N/A% 29.88 in 10.0 mi South 4.6 mph - N/A   Scattered Clouds
10:15 PM - - N/A% 29.91 in 4.0 mi Calm Calm - 0.03 in Rain Heavy Rain
10:35 PM - - N/A% 29.91 in 10.0 mi South 3.5 mph - 0.06 in Rain Light Rain
10:55 PM - - N/A% 29.90 in 10.0 mi South 3.5 mph - 0.07 in   Clear
11:15 PM - - N/A% 29.90 in 10.0 mi South 3.5 mph - N/A   Scattered Clouds
11:35 PM - - N/A% 29.90 in 10.0 mi South 3.5 mph - N/A   Scattered Clouds
11:55 PM - - N/A% 29.90 in 10.0 mi South 4.6 mph - N/A   Scattered Clouds